Time,TemperatureF,DewpointF,PressureIn,WindDirection,WindDirectionDegrees,WindSpeedMPH,WindSpeedGustMPH,Humidity,HourlyPrecipIn,Conditions,Clouds,dailyrainin,SolarRadiationWatts/m^2,SoftwareType,DateUTC
2013-02-20 00:00:00,5.3,-0.3,30.36,NNE,30,3.0,3.0,77,0.00,,,0.00,0,Wunderground v.1.15,2013-02-20 06:00:00,
2013-02-20 00:05:00,5.1,-0.5,30.36,NNE,30,3.0,4.0,77,0.00,,,0.00,0,Wunderground v.1.15,2013-02-20 06:05:00,
2013-02-20 00:10:00,5.1,-0.5,30.36,NNE,30,0.0,3.0,77,0.00,,,0.00,0,Wunderground v.1.15,2013-02-20 06:10:00,
2013-02-20 00:15:00,5.0,1.7,30.37,NNE,30,0.0,3.0,86,0.00,,,0.00,0,Wunderground v.1.15,2013-02-20 06:15:00,
2013-02-20 00:20:00,5.1,-0.5,30.36,NNE,32,3.0,3.0,77,0.00,,,0.00,0,Wunderground v.1.15,2013-02-20 06:20:00,
2013-02-20 00:25:00,5.1,-0.5,30.36,NNE,32,2.0,4.0,77,0.00,,,0.00,0,Wunderground v.1.15,2013-02-20 06:25:00,
2013-02-20 00:30:00,5.1,-0.5,30.36,NNE,32,4.0,4.0,77,0.00,,,0.00,0,Wunderground v.1.15,2013-02-20 06:30:00,
2013-02-20 00:35:00,5.1,-0.3,30.36,NE,35,3.0,6.0,78,0.00,,,0.00,0,Wunderground v.1.15,2013-02-20 06:35:00,
2013-02-20 00:40:00,5.2,-0.2,30.36,NE,35,3.0,6.0,78,0.00,,,0.00,0,Wunderground v.1.15,2013-02-20 06:40:00,
2013-02-20 00:45:00,5.2,-0.2,30.36,NE,35,1.0,4.0,78,0.00,,,0.00,0,Wunderground v.1.15,2013-02-20 06:45:00,
2013-02-20 00:50:00,5.1,-0.3,30.36,NE,35,1.0,4.0,78,0.00,,,0.00,0,Wunderground v.1.15,2013-02-20 06:50:00,
2013-02-20 00:55:00,5.1,-0.3,30.36,NE,35,1.0,3.0,78,0.00,,,0.00,0,Wunderground v.1.15,2013-02-20 06:55:00,
2013-02-20 01:00:00,5.1,-0.3,30.36,NE,35,1.0,3.0,78,0.00,,,0.00,0,Wunderground v.1.15,2013-02-20 07:00:00,
2013-02-20 01:05:00,5.1,0.0,30.36,NE,35,2.0,2.0,79,0.00,,,0.00,0,Wunderground v.1.15,2013-02-20 07:05:00,
2013-02-20 01:10:00,5.0,-0.4,30.36,NE,38,5.0,6.0,78,0.00,,,0.00,0,Wunderground v.1.15,2013-02-20 07:10:00,
2013-02-20 01:15:00,4.8,-0.6,30.36,NE,47,3.0,6.0,78,0.00,,,0.00,0,Wunderground v.1.15,2013-02-20 07:15:00,
2013-02-20 01:20:00,4.7,-0.4,30.35,NE,40,6.0,7.0,79,0.00,,,0.00,0,Wunderground v.1.15,2013-02-20 07:20:00,
2013-02-20 01:25:00,5.0,-0.1,30.35,NE,40,6.0,7.0,79,0.00,,,0.00,0,Wunderground v.1.15,2013-02-20 07:25:00,
2013-02-20 01:30:00,5.1,0.0,30.35,NNE,32,7.0,7.0,79,0.00,,,0.00,0,Wunderground v.1.15,2013-02-20 07:30:00,
2013-02-20 01:35:00,5.1,0.0,30.34,NE,36,7.0,9.0,79,0.00,,,0.00,0,Wunderground v.1.15,2013-02-20 07:35:00,
2013-02-20 01:40:00,5.0,-0.1,30.34,NE,44,4.0,9.0,79,0.00,,,0.00,0,Wunderground v.1.15,2013-02-20 07:40:00,
2013-02-20 01:45:00,5.0,-0.1,30.35,NE,56,6.0,7.0,79,0.00,,,0.00,0,Wunderground v.1.15,2013-02-20 07:45:00,
2013-02-20 01:50:00,5.0,-0.1,30.34,NE,43,6.0,8.0,79,0.00,,,0.00,0,Wunderground v.1.15,2013-02-20 07:50:00,
2013-02-20 01:55:00,4.9,-0.2,30.34,NNE,32,4.0,8.0,79,0.00,,,0.00,0,Wunderground v.1.15,2013-02-20 07:55:00,
2013-02-20 02:00:00,4.9,-0.2,30.34,NE,43,6.0,8.0,79,0.00,,,0.00,0,Wunderground v.1.15,2013-02-20 08:00:00,
2013-02-20 02:05:00,4.9,-0.2,30.34,NNE,29,7.0,9.0,79,0.00,,,0.00,0,Wunderground v.1.15,2013-02-20 08:05:00,
2013-02-20 02:10:00,5.0,-0.1,30.34,NE,36,2.0,9.0,79,0.00,,,0.00,0,Wunderground v.1.15,2013-02-20 08:10:00,
2013-02-20 02:15:00,4.9,-0.2,30.34,NE,45,2.0,5.0,79,0.00,,,0.00,0,Wunderground v.1.15,2013-02-20 08:15:00,
2013-02-20 02:20:00,4.9,-0.2,30.34,NE,50,1.0,5.0,79,0.00,,,0.00,0,Wunderground v.1.15,2013-02-20 08:20:00,
2013-02-20 02:25:00,4.9,0.1,30.34,NE,55,2.0,7.0,80,0.00,,,0.00,0,Wunderground v.1.15,2013-02-20 08:25:00,
2013-02-20 02:30:00,4.9,-0.2,30.34,NE,51,3.0,7.0,79,0.00,,,0.00,0,Wunderground v.1.15,2013-02-20 08:30:00,
2013-02-20 02:35:00,4.8,0.0,30.34,NE,48,3.0,5.0,80,0.00,,,0.00,0,Wunderground v.1.15,2013-02-20 08:35:00,
2013-02-20 02:40:00,4.8,0.0,30.33,NE,35,3.0,6.0,80,0.00,,,0.00,0,Wunderground v.1.15,2013-02-20 08:40:00,
2013-02-20 02:45:00,4.8,0.0,30.33,NE,39,3.0,6.0,80,0.00,,,0.00,0,Wunderground v.1.15,2013-02-20 08:45:00,
2013-02-20 02:50:00,4.8,0.0,30.33,NE,40,3.0,6.0,80,0.00,,,0.00,0,Wunderground v.1.15,2013-02-20 08:50:00,
2013-02-20 02:55:00,4.7,-0.1,30.33,NE,42,1.0,5.0,80,0.00,,,0.00,0,Wunderground v.1.15,2013-02-20 08:55:00,
2013-02-20 03:00:00,4.7,-0.1,30.33,NE,42,3.0,5.0,80,0.00,,,0.00,0,Wunderground v.1.15,2013-02-20 09:00:00,
2013-02-20 03:05:00,4.6,-0.2,30.33,NE,49,3.0,5.0,80,0.00,,,0.00,0,Wunderground v.1.15,2013-02-20 09:05:00,
2013-02-20 03:10:00,4.6,0.1,30.33,NE,49,3.0,5.0,81,0.00,,,0.00,0,Wunderground v.1.15,2013-02-20 09:10:00,
2013-02-20 03:15:00,4.6,0.1,30.32,NE,49,2.0,5.0,81,0.00,,,0.00,0,Wunderground v.1.15,2013-02-20 09:15:00,
2013-02-20 03:20:00,4.5,0.0,30.32,NE,49,4.0,5.0,81,0.00,,,0.00,0,Wunderground v.1.15,2013-02-20 09:20:00,
2013-02-20 03:24:00,4.6,0.1,30.32,ENE,63,3.0,7.0,81,0.00,,,0.00,0,Wunderground v.1.15,2013-02-20 09:24:00,
2013-02-20 03:29:00,4.6,0.1,30.32,ENE,61,4.0,7.0,81,0.00,,,0.00,0,Wunderground v.1.15,2013-02-20 09:29:00,
2013-02-20 03:34:00,4.6,0.1,30.32,ENE,64,3.0,7.0,81,0.00,,,0.00,0,Wunderground v.1.15,2013-02-20 09:34:00,
2013-02-20 03:39:00,4.6,0.1,30.32,ENE,65,4.0,8.0,81,0.00,,,0.00,0,Wunderground v.1.15,2013-02-20 09:39:00,
2013-02-20 03:44:00,4.6,0.1,30.32,ENE,63,7.0,7.0,81,0.00,,,0.00,0,Wunderground v.1.15,2013-02-20 09:44:00,
2013-02-20 03:49:00,4.6,0.1,30.31,NE,54,5.0,7.0,81,0.00,,,0.00,0,Wunderground v.1.15,2013-02-20 09:49:00,
2013-02-20 03:54:00,4.6,0.1,30.31,ENE,58,3.0,8.0,81,0.00,,,0.00,0,Wunderground v.1.15,2013-02-20 09:54:00,
2013-02-20 03:59:00,4.6,0.1,30.31,NE,44,5.0,8.0,81,0.00,,,0.00,0,Wunderground v.1.15,2013-02-20 09:59:00,
2013-02-20 04:04:00,4.6,0.1,30.30,ENE,57,4.0,8.0,81,0.00,,,0.00,0,Wunderground v.1.15,2013-02-20 10:04:00,
2013-02-20 04:09:00,4.6,0.1,30.30,NE,38,4.0,8.0,81,0.00,,,0.00,0,Wunderground v.1.15,2013-02-20 10:09:00,
2013-02-20 04:14:00,4.6,0.1,30.31,ENE,62,5.0,9.0,81,0.00,,,0.00,0,Wunderground v.1.15,2013-02-20 10:14:00,
2013-02-20 04:19:00,4.6,0.1,30.31,ENE,58,4.0,9.0,81,0.00,,,0.00,0,Wunderground v.1.15,2013-02-20 10:19:00,
2013-02-20 04:24:00,4.6,0.1,30.30,ENE,77,5.0,7.0,81,0.00,,,0.00,0,Wunderground v.1.15,2013-02-20 10:24:00,
2013-02-20 04:29:00,4.6,0.1,30.30,East,83,6.0,7.0,81,0.00,,,0.00,0,Wunderground v.1.15,2013-02-20 10:29:00,
2013-02-20 04:34:00,4.7,0.2,30.30,ENE,77,5.0,9.0,81,0.00,,,0.00,0,Wunderground v.1.15,2013-02-20 10:34:00,
2013-02-20 04:39:00,4.8,0.2,30.30,East,80,8.0,11.0,81,0.00,,,0.00,0,Wunderground v.1.15,2013-02-20 10:39:00,
2013-02-20 04:44:00,4.7,0.2,30.30,ENE,65,4.0,9.0,81,0.00,,,0.00,0,Wunderground v.1.15,2013-02-20 10:44:00,
2013-02-20 04:49:00,4.7,0.2,30.30,ENE,59,4.0,9.0,81,0.00,,,0.00,0,Wunderground v.1.15,2013-02-20 10:49:00,
2013-02-20 04:54:00,4.7,0.2,30.30,ENE,65,4.0,7.0,81,0.00,,,0.00,0,Wunderground v.1.15,2013-02-20 10:54:00,
2013-02-20 04:59:00,4.7,0.2,30.30,ENE,59,5.0,8.0,81,0.00,,,0.00,0,Wunderground v.1.15,2013-02-20 10:59:00,
2013-02-20 05:04:00,4.7,0.2,30.30,ENE,64,3.0,9.0,81,0.00,,,0.00,0,Wunderground v.1.15,2013-02-20 11:04:00,
2013-02-20 05:09:00,4.7,0.2,30.30,East,80,3.0,9.0,81,0.00,,,0.00,0,Wunderground v.1.15,2013-02-20 11:09:00,
2013-02-20 05:14:00,4.8,0.2,30.30,ENE,66,4.0,9.0,81,0.00,,,0.00,0,Wunderground v.1.15,2013-02-20 11:14:00,
2013-02-20 05:19:00,4.8,0.2,30.29,ENE,73,5.0,9.0,81,0.00,,,0.00,0,Wunderground v.1.15,2013-02-20 11:19:00,
2013-02-20 05:24:00,4.9,0.3,30.29,ENE,64,4.0,8.0,81,0.00,,,0.00,0,Wunderground v.1.15,2013-02-20 11:24:00,
2013-02-20 05:29:00,4.9,0.3,30.30,East,87,7.0,9.0,81,0.00,,,0.00,0,Wunderground v.1.15,2013-02-20 11:29:00,
2013-02-20 05:34:00,4.9,0.1,30.30,East,94,10.0,11.0,80,0.00,,,0.00,0,Wunderground v.1.15,2013-02-20 11:34:00,
2013-02-20 05:39:00,4.9,0.1,30.31,East,86,10.0,11.0,80,0.00,,,0.00,0,Wunderground v.1.15,2013-02-20 11:39:00,
2013-02-20 05:44:00,4.8,0.0,30.31,East,94,6.0,11.0,80,0.00,,,0.00,0,Wunderground v.1.15,2013-02-20 11:44:00,
2013-02-20 05:49:00,4.8,0.2,30.31,East,81,5.0,11.0,81,0.00,,,0.00,0,Wunderground v.1.15,2013-02-20 11:49:00,
2013-02-20 05:54:00,4.7,0.2,30.30,East,81,3.0,8.0,81,0.00,,,0.00,0,Wunderground v.1.15,2013-02-20 11:54:00,
2013-02-20 05:59:00,4.7,0.2,30.30,East,81,6.0,8.0,81,0.00,,,0.00,0,Wunderground v.1.15,2013-02-20 11:59:00,
2013-02-20 06:04:00,4.7,0.2,30.30,East,88,6.0,9.0,81,0.00,,,0.00,0,Wunderground v.1.15,2013-02-20 12:04:00,
2013-02-20 06:09:00,4.9,0.3,30.30,East,88,9.0,10.0,81,0.00,,,0.00,0,Wunderground v.1.15,2013-02-20 12:09:00,
2013-02-20 06:14:00,4.9,0.1,30.30,East,92,6.0,10.0,80,0.00,,,0.00,0,Wunderground v.1.15,2013-02-20 12:14:00,
2013-02-20 06:19:00,5.0,0.2,30.30,ENE,78,7.0,10.0,80,0.00,,,0.00,0,Wunderground v.1.15,2013-02-20 12:19:00,
2013-02-20 06:24:00,5.0,0.2,30.30,East,91,7.0,8.0,80,0.00,,,0.00,0,Wunderground v.1.15,2013-02-20 12:24:00,
2013-02-20 06:29:00,5.1,0.3,30.30,East,83,6.0,9.0,80,0.00,,,0.00,0,Wunderground v.1.15,2013-02-20 12:29:00,
2013-02-20 06:34:00,5.2,0.4,30.29,East,88,10.0,11.0,80,0.00,,,0.00,0,Wunderground v.1.15,2013-02-20 12:34:00,
2013-02-20 06:39:00,5.1,0.3,30.30,East,84,7.0,11.0,80,0.00,,,0.00,0,Wunderground v.1.15,2013-02-20 12:39:00,
2013-02-20 06:44:00,5.1,0.3,30.30,East,86,9.0,10.0,80,0.00,,,0.00,0,Wunderground v.1.15,2013-02-20 12:44:00,
2013-02-20 06:49:00,5.3,0.5,30.30,East,94,5.0,11.0,80,0.00,,,0.00,0,Wunderground v.1.15,2013-02-20 12:49:00,
2013-02-20 06:54:00,5.3,0.5,30.30,ESE,112,7.0,13.0,80,0.00,,,0.00,0,Wunderground v.1.15,2013-02-20 12:54:00,
2013-02-20 06:59:00,5.4,0.6,30.30,ESE,107,7.0,13.0,80,0.00,,,0.00,0,Wunderground v.1.15,2013-02-20 12:59:00,
2013-02-20 07:04:00,5.5,0.7,30.30,East,88,10.0,13.0,80,0.00,,,0.00,0,Wunderground v.1.15,2013-02-20 13:04:00,
2013-02-20 07:09:00,5.5,0.7,30.30,East,97,7.0,13.0,80,0.00,,,0.00,0,Wunderground v.1.15,2013-02-20 13:09:00,
2013-02-20 07:14:00,5.4,0.6,30.31,East,89,14.0,14.0,80,0.00,,,0.00,0,Wunderground v.1.15,2013-02-20 13:14:00,
2013-02-20 07:19:00,5.4,0.6,30.31,ESE,114,10.0,15.0,80,0.00,,,0.00,0,Wunderground v.1.15,2013-02-20 13:19:00,
2013-02-20 07:24:00,5.6,0.8,30.31,East,100,9.0,13.0,80,0.00,,,0.00,0,Wunderground v.1.15,2013-02-20 13:24:00,
2013-02-20 07:29:00,5.5,0.7,30.31,ESE,105,7.0,14.0,80,0.00,,,0.00,0,Wunderground v.1.15,2013-02-20 13:29:00,
2013-02-20 07:34:00,5.4,0.6,30.31,ESE,104,7.0,10.0,80,0.00,,,0.00,5,Wunderground v.1.15,2013-02-20 13:34:00,
2013-02-20 07:39:00,5.5,0.7,30.30,East,80,9.0,11.0,80,0.00,,,0.00,5,Wunderground v.1.15,2013-02-20 13:39:00,
2013-02-20 07:44:00,5.5,0.7,30.30,East,86,9.0,14.0,80,0.00,,,0.00,9,Wunderground v.1.15,2013-02-20 13:44:00,
2013-02-20 07:49:00,5.7,0.9,30.30,East,85,10.0,14.0,80,0.00,,,0.00,12,Wunderground v.1.15,2013-02-20 13:49:00,
2013-02-20 07:54:00,5.8,1.0,30.30,East,86,10.0,15.0,80,0.00,,,0.00,18,Wunderground v.1.15,2013-02-20 13:54:00,
2013-02-20 07:59:00,5.7,0.6,30.30,East,96,10.0,15.0,79,0.00,,,0.00,25,Wunderground v.1.15,2013-02-20 13:59:00,
2013-02-20 08:04:00,5.9,1.1,30.31,East,92,11.0,13.0,80,0.00,,,0.00,32,Wunderground v.1.15,2013-02-20 14:04:00,
2013-02-20 08:09:00,5.9,0.8,30.31,East,101,10.0,13.0,79,0.00,,,0.00,35,Wunderground v.1.15,2013-02-20 14:09:00,
2013-02-20 08:14:00,6.0,1.2,30.30,East,83,11.0,14.0,80,0.00,,,0.00,39,Wunderground v.1.15,2013-02-20 14:14:00,
2013-02-20 08:19:00,6.1,1.3,30.30,ESE,103,9.0,15.0,80,0.00,,,0.00,44,Wunderground v.1.15,2013-02-20 14:19:00,
2013-02-20 08:24:00,6.3,1.4,30.30,East,97,14.0,16.0,80,0.00,,,0.00,53,Wunderground v.1.15,2013-02-20 14:24:00,
2013-02-20 08:29:00,6.7,1.8,30.30,East,99,11.0,16.0,80,0.00,,,0.00,56,Wunderground v.1.15,2013-02-20 14:29:00,
2013-02-20 11:23:00,15.7,5.0,30.30,SE,128,7.0,12.0,62,0.00,,,0.00,338,Wunderground v.1.15,2013-02-20 17:23:00,
2013-02-20 11:29:00,16.4,5.3,30.30,East,96,15.0,18.0,61,0.00,,,0.00,357,Wunderground v.1.15,2013-02-20 17:29:00,
2013-02-20 11:34:00,16.9,5.4,30.30,ESE,115,13.0,16.0,60,0.00,,,0.00,364,Wunderground v.1.15,2013-02-20 17:34:00,
2013-02-20 11:39:00,17.3,5.4,30.29,ESE,113,14.0,17.0,59,0.00,,,0.00,373,Wunderground v.1.15,2013-02-20 17:39:00,
2013-02-20 11:45:00,17.6,5.3,30.30,SE,144,9.0,14.0,58,0.00,,,0.00,385,Wunderground v.1.15,2013-02-20 17:45:00,
2013-02-20 11:50:00,18.2,5.9,30.29,SE,127,13.0,17.0,58,0.00,,,0.00,360,Wunderground v.1.15,2013-02-20 17:50:00,
2013-02-20 11:55:00,18.0,4.9,30.29,SE,134,11.0,13.0,56,0.00,,,0.00,364,Wunderground v.1.15,2013-02-20 17:55:00,
2013-02-20 12:00:00,18.8,6.1,30.29,SE,127,5.0,12.0,57,0.00,,,0.00,366,Wunderground v.1.15,2013-02-20 18:00:00,
2013-02-20 12:05:00,18.8,5.3,30.29,SE,135,11.0,19.0,55,0.00,,,0.00,373,Wunderground v.1.15,2013-02-20 18:05:00,
2013-02-20 12:10:00,19.2,5.7,30.29,ESE,106,16.0,17.0,55,0.00,,,0.00,383,Wunderground v.1.15,2013-02-20 18:10:00,
2013-02-20 12:15:00,19.3,4.9,30.28,SE,131,17.0,22.0,53,0.00,,,0.00,388,Wunderground v.1.15,2013-02-20 18:15:00,
2013-02-20 12:20:00,19.3,4.9,30.28,ESE,105,17.0,17.0,53,0.00,,,0.00,396,Wunderground v.1.15,2013-02-20 18:20:00,
2013-02-20 12:25:00,19.7,5.3,30.28,ESE,107,14.0,20.0,53,0.00,,,0.00,381,Wunderground v.1.15,2013-02-20 18:25:00,
2013-02-20 12:30:00,19.5,5.1,30.27,ESE,115,12.0,15.0,53,0.00,,,0.00,355,Wunderground v.1.15,2013-02-20 18:30:00,
2013-02-20 12:35:00,19.7,4.9,30.27,East,91,15.0,19.0,52,0.00,,,0.00,348,Wunderground v.1.15,2013-02-20 18:35:00,
2013-02-20 12:40:00,19.6,4.8,30.27,SSE,150,11.0,14.0,52,0.00,,,0.00,329,Wunderground v.1.15,2013-02-20 18:40:00,
2013-02-20 12:45:00,20.0,4.7,30.26,ESE,107,16.0,21.0,51,0.00,,,0.00,332,Wunderground v.1.15,2013-02-20 18:45:00,
2013-02-20 12:50:00,20.0,4.7,30.26,East,92,15.0,15.0,51,0.00,,,0.00,371,Wunderground v.1.15,2013-02-20 18:50:00,
2013-02-20 12:55:00,20.3,5.0,30.25,SSE,155,11.0,27.0,51,0.00,,,0.00,383,Wunderground v.1.15,2013-02-20 18:55:00,
2013-02-20 13:00:00,20.7,4.5,30.25,ESE,121,7.0,16.0,49,0.00,,,0.00,385,Wunderground v.1.15,2013-02-20 19:00:00,
2013-02-20 13:05:00,21.4,5.2,30.25,ESE,103,9.0,23.0,49,0.00,,,0.00,381,Wunderground v.1.15,2013-02-20 19:05:00,
2013-02-20 13:10:00,22.0,5.3,30.25,East,92,14.0,15.0,48,0.00,,,0.00,369,Wunderground v.1.15,2013-02-20 19:10:00,
2013-02-20 13:15:00,22.2,5.0,30.25,ESE,113,15.0,22.0,47,0.00,,,0.00,387,Wunderground v.1.15,2013-02-20 19:15:00,
2013-02-20 13:20:00,22.5,5.3,30.25,ESE,111,9.0,14.0,47,0.00,,,0.00,401,Wunderground v.1.15,2013-02-20 19:20:00,
2013-02-20 13:25:00,22.5,4.8,30.24,East,98,14.0,21.0,46,0.00,,,0.00,362,Wunderground v.1.15,2013-02-20 19:25:00,
2013-02-20 13:30:00,22.8,4.6,30.24,East,90,14.0,15.0,45,0.00,,,0.00,355,Wunderground v.1.15,2013-02-20 19:30:00,
2013-02-20 13:35:00,22.8,4.6,30.24,ESE,117,12.0,23.0,45,0.00,,,0.00,348,Wunderground v.1.15,2013-02-20 19:35:00,
2013-02-20 13:40:00,22.9,4.2,30.23,East,93,11.0,14.0,44,0.00,,,0.00,323,Wunderground v.1.15,2013-02-20 19:40:00,
2013-02-20 13:45:00,22.7,4.5,30.23,ESE,112,11.0,24.0,45,0.00,,,0.00,316,Wunderground v.1.15,2013-02-20 19:45:00,
2013-02-20 13:50:00,22.6,3.9,30.23,East,101,19.0,19.0,44,0.00,,,0.00,302,Wunderground v.1.15,2013-02-20 19:50:00,
2013-02-20 13:55:00,22.8,4.1,30.22,SE,124,12.0,19.0,44,0.00,,,0.00,288,Wunderground v.1.15,2013-02-20 19:55:00,
2013-02-20 14:00:00,22.9,4.2,30.22,SE,129,8.0,14.0,44,0.00,,,0.00,274,Wunderground v.1.15,2013-02-20 20:00:00,
2013-02-20 14:05:00,23.0,3.8,30.22,SE,128,14.0,17.0,43,0.00,,,0.00,274,Wunderground v.1.15,2013-02-20 20:05:00,
2013-02-20 14:10:00,23.0,4.8,30.22,SE,142,7.0,16.0,45,0.00,,,0.00,279,Wunderground v.1.15,2013-02-20 20:10:00,
2013-02-20 14:15:00,23.8,5.0,30.22,ESE,113,12.0,16.0,44,0.00,,,0.00,283,Wunderground v.1.15,2013-02-20 20:15:00,
2013-02-20 14:20:00,23.6,4.8,30.22,SE,137,14.0,15.0,44,0.00,,,0.00,315,Wunderground v.1.15,2013-02-20 20:20:00,
2013-02-20 14:25:00,24.4,5.1,30.22,SE,138,11.0,16.0,43,0.00,,,0.00,320,Wunderground v.1.15,2013-02-20 20:25:00,
2013-02-20 14:30:00,24.8,4.9,30.21,SE,131,9.0,16.0,42,0.00,,,0.00,304,Wunderground v.1.15,2013-02-20 20:30:00,
2013-02-20 14:35:00,24.8,4.9,30.21,SE,141,10.0,18.0,42,0.00,,,0.00,292,Wunderground v.1.15,2013-02-20 20:35:00,
2013-02-20 14:40:00,24.8,4.4,30.21,SSE,148,14.0,14.0,41,0.00,,,0.00,278,Wunderground v.1.15,2013-02-20 20:40:00,
2013-02-20 14:45:00,25.1,4.7,30.20,SE,134,14.0,16.0,41,0.00,,,0.00,269,Wunderground v.1.15,2013-02-20 20:45:00,
2013-02-20 14:50:00,24.4,4.0,30.20,ESE,103,16.0,16.0,41,0.00,,,0.00,272,Wunderground v.1.15,2013-02-20 20:50:00,
2013-02-20 14:55:00,24.5,4.6,30.20,SSE,154,10.0,19.0,42,0.00,,,0.00,258,Wunderground v.1.15,2013-02-20 20:55:00,
2013-02-20 15:00:00,24.6,4.2,30.20,SE,126,10.0,15.0,41,0.00,,,0.00,250,Wunderground v.1.15,2013-02-20 21:00:00,
2013-02-20 15:05:00,24.4,4.0,30.20,ESE,108,11.0,18.0,41,0.00,,,0.00,232,Wunderground v.1.15,2013-02-20 21:05:00,
2013-02-20 15:10:00,24.0,3.7,30.20,SE,135,15.0,16.0,41,0.00,,,0.00,239,Wunderground v.1.15,2013-02-20 21:10:00,
2013-02-20 15:15:00,23.9,4.1,30.19,SE,146,12.0,17.0,42,0.00,,,0.00,236,Wunderground v.1.15,2013-02-20 21:15:00,
2013-02-20 15:20:00,23.8,4.0,30.19,SE,138,10.0,13.0,42,0.00,,,0.00,223,Wunderground v.1.15,2013-02-20 21:20:00,
2013-02-20 15:25:00,23.9,4.1,30.19,ESE,105,11.0,17.0,42,0.00,,,0.00,206,Wunderground v.1.15,2013-02-20 21:25:00,
2013-02-20 15:30:00,23.8,4.0,30.19,ESE,105,14.0,14.0,42,0.00,,,0.00,199,Wunderground v.1.15,2013-02-20 21:30:00,
2013-02-20 15:35:00,23.6,4.3,30.19,ESE,118,15.0,18.0,43,0.00,,,0.00,188,Wunderground v.1.15,2013-02-20 21:35:00,
2013-02-20 15:40:00,23.6,4.3,30.19,ESE,107,14.0,16.0,43,0.00,,,0.00,174,Wunderground v.1.15,2013-02-20 21:40:00,
2013-02-20 15:45:00,23.7,4.9,30.18,East,94,17.0,18.0,44,0.00,,,0.00,171,Wunderground v.1.15,2013-02-20 21:45:00,
2013-02-20 15:50:00,23.6,4.3,30.18,ESE,109,9.0,15.0,43,0.00,,,0.00,176,Wunderground v.1.15,2013-02-20 21:50:00,
2013-02-20 15:55:00,23.6,4.3,30.18,SE,142,10.0,18.0,43,0.00,,,0.00,171,Wunderground v.1.15,2013-02-20 21:55:00,
2013-02-20 16:00:00,23.6,4.8,30.18,ESE,119,5.0,14.0,44,0.00,,,0.00,144,Wunderground v.1.15,2013-02-20 22:00:00,
2013-02-20 16:05:00,24.0,5.7,30.18,East,90,6.0,18.0,45,0.00,,,0.00,125,Wunderground v.1.15,2013-02-20 22:05:00,
2013-02-20 16:10:00,23.8,5.0,30.18,ESE,122,12.0,18.0,44,0.00,,,0.00,102,Wunderground v.1.15,2013-02-20 22:10:00,
2013-02-20 16:15:00,23.6,5.3,30.18,East,92,16.0,23.0,45,0.00,,,0.00,84,Wunderground v.1.15,2013-02-20 22:15:00,
2013-02-20 16:20:00,23.6,5.3,30.18,ESE,105,21.0,21.0,45,0.00,,,0.00,62,Wunderground v.1.15,2013-02-20 22:20:00,
2013-02-20 16:25:00,23.3,5.1,30.18,SE,136,6.0,22.0,45,0.00,,,0.00,49,Wunderground v.1.15,2013-02-20 22:25:00,
2013-02-20 16:30:00,23.4,5.2,30.17,East,86,9.0,13.0,45,0.00,,,0.00,44,Wunderground v.1.15,2013-02-20 22:30:00,
2013-02-20 16:35:00,23.2,5.0,30.17,ESE,106,13.0,22.0,45,0.00,,,0.00,40,Wunderground v.1.15,2013-02-20 22:35:00,
2013-02-20 16:40:00,23.2,5.4,30.17,East,85,9.0,15.0,46,0.00,,,0.00,39,Wunderground v.1.15,2013-02-20 22:40:00,
2013-02-20 16:45:00,23.2,5.0,30.17,ESE,104,10.0,18.0,45,0.00,,,0.00,35,Wunderground v.1.15,2013-02-20 22:45:00,
2013-02-20 16:50:00,23.2,5.0,30.17,East,86,15.0,15.0,45,0.00,,,0.00,28,Wunderground v.1.15,2013-02-20 22:50:00,
2013-02-20 16:55:00,23.0,5.3,30.17,East,96,15.0,21.0,46,0.00,,,0.00,23,Wunderground v.1.15,2013-02-20 22:55:00,
2013-02-20 17:00:00,22.7,5.0,30.17,East,92,18.0,19.0,46,0.00,,,0.00,21,Wunderground v.1.15,2013-02-20 23:00:00,
2013-02-20 17:05:00,22.6,4.9,30.17,East,87,17.0,19.0,46,0.00,,,0.00,19,Wunderground v.1.15,2013-02-20 23:05:00,
2013-02-20 17:10:00,22.5,4.8,30.17,East,98,14.0,14.0,46,0.00,,,0.00,18,Wunderground v.1.15,2013-02-20 23:10:00,
2013-02-20 17:15:00,22.5,5.3,30.17,ESE,103,13.0,17.0,47,0.00,,,0.00,18,Wunderground v.1.15,2013-02-20 23:15:00,
2013-02-20 17:20:00,22.4,5.2,30.17,ESE,107,13.0,16.0,47,0.00,,,0.00,16,Wunderground v.1.15,2013-02-20 23:20:00,
2013-02-20 17:25:00,22.3,5.1,30.17,East,96,17.0,19.0,47,0.00,,,0.00,16,Wunderground v.1.15,2013-02-20 23:25:00,
2013-02-20 17:30:00,22.2,5.0,30.17,East,93,9.0,13.0,47,0.00,,,0.00,18,Wunderground v.1.15,2013-02-20 23:30:00,
2013-02-20 17:35:00,22.2,5.5,30.17,East,99,16.0,18.0,48,0.00,,,0.00,14,Wunderground v.1.15,2013-02-20 23:35:00,
2013-02-20 17:40:00,22.2,5.5,30.17,ESE,113,11.0,15.0,48,0.00,,,0.00,12,Wunderground v.1.15,2013-02-20 23:40:00,
2013-02-20 17:46:00,22.1,5.4,30.17,East,100,17.0,19.0,48,0.00,,,0.00,11,Wunderground v.1.15,2013-02-20 23:46:00,
2013-02-20 17:51:00,22.1,5.4,30.17,ESE,115,12.0,15.0,48,0.00,,,0.00,7,Wunderground v.1.15,2013-02-20 23:51:00,
2013-02-20 17:56:00,22.2,5.5,30.16,ESE,102,15.0,18.0,48,0.00,,,0.00,7,Wunderground v.1.15,2013-02-20 23:56:00,
2013-02-20 18:01:00,22.1,5.4,30.17,ESE,110,15.0,19.0,48,0.00,,,0.00,5,Wunderground v.1.15,2013-02-21 00:01:00,
2013-02-20 18:06:00,22.1,4.9,30.17,East,92,19.0,23.0,47,0.00,,,0.00,0,Wunderground v.1.15,2013-02-21 00:06:00,
2013-02-20 18:11:00,22.1,4.9,30.17,ESE,110,13.0,15.0,47,0.00,,,0.00,0,Wunderground v.1.15,2013-02-21 00:11:00,
2013-02-20 18:16:00,22.1,4.9,30.17,ESE,106,13.0,16.0,47,0.00,,,0.00,0,Wunderground v.1.15,2013-02-21 00:16:00,
2013-02-20 18:21:00,22.1,4.9,30.17,SE,126,13.0,14.0,47,0.00,,,0.00,0,Wunderground v.1.15,2013-02-21 00:21:00,
2013-02-20 18:26:00,22.0,4.8,30.17,East,96,18.0,20.0,47,0.00,,,0.00,0,Wunderground v.1.15,2013-02-21 00:26:00,
2013-02-20 18:31:00,22.0,4.8,30.17,ESE,122,11.0,12.0,47,0.00,,,0.00,0,Wunderground v.1.15,2013-02-21 00:31:00,
2013-02-20 18:36:00,22.0,5.3,30.17,SE,128,10.0,18.0,48,0.00,,,0.00,0,Wunderground v.1.15,2013-02-21 00:36:00,
2013-02-20 18:41:00,22.0,5.3,30.17,ESE,105,11.0,14.0,48,0.00,,,0.00,0,Wunderground v.1.15,2013-02-21 00:41:00,
2013-02-20 18:46:00,22.0,5.3,30.17,East,97,11.0,17.0,48,0.00,,,0.00,0,Wunderground v.1.15,2013-02-21 00:46:00,
2013-02-20 18:51:00,22.0,4.8,30.18,ESE,111,12.0,12.0,47,0.00,,,0.00,0,Wunderground v.1.15,2013-02-21 00:51:00,
2013-02-20 18:56:00,22.0,5.3,30.17,ESE,110,12.0,17.0,48,0.00,,,0.00,0,Wunderground v.1.15,2013-02-21 00:56:00,
2013-02-20 19:01:00,22.0,5.3,30.18,ESE,115,12.0,13.0,48,0.00,,,0.00,0,Wunderground v.1.15,2013-02-21 01:01:00,
2013-02-20 19:06:00,21.9,4.7,30.18,East,101,10.0,19.0,47,0.00,,,0.00,0,Wunderground v.1.15,2013-02-21 01:06:00,
2013-02-20 19:11:00,21.9,5.2,30.18,East,100,11.0,12.0,48,0.00,,,0.00,0,Wunderground v.1.15,2013-02-21 01:11:00,
2013-02-20 19:16:00,21.9,5.2,30.17,ESE,108,17.0,19.0,48,0.00,,,0.00,0,Wunderground v.1.15,2013-02-21 01:16:00,
2013-02-20 19:21:00,21.7,5.0,30.17,East,95,7.0,15.0,48,0.00,,,0.00,0,Wunderground v.1.15,2013-02-21 01:21:00,
2013-02-20 19:26:00,21.5,4.8,30.17,East,96,13.0,19.0,48,0.00,,,0.00,0,Wunderground v.1.15,2013-02-21 01:26:00,
2013-02-20 19:31:00,21.5,4.8,30.18,ESE,106,14.0,16.0,48,0.00,,,0.00,0,Wunderground v.1.15,2013-02-21 01:31:00,
2013-02-20 19:36:00,21.4,5.2,30.18,East,94,11.0,16.0,49,0.00,,,0.00,0,Wunderground v.1.15,2013-02-21 01:36:00,
2013-02-20 19:41:00,21.4,5.2,30.18,East,88,11.0,15.0,49,0.00,,,0.00,0,Wunderground v.1.15,2013-02-21 01:41:00,
2013-02-20 19:46:00,21.3,6.0,30.18,SE,124,7.0,15.0,51,0.00,,,0.00,0,Wunderground v.1.15,2013-02-21 01:46:00,
2013-02-20 19:51:00,21.1,7.0,30.18,ESE,102,9.0,10.0,54,0.00,,,0.00,0,Wunderground v.1.15,2013-02-21 01:51:00,
2013-02-20 19:56:00,20.9,7.6,30.17,ESE,102,13.0,15.0,56,0.00,,,0.00,0,Wunderground v.1.15,2013-02-21 01:56:00,
2013-02-20 20:01:00,20.6,8.1,30.17,East,95,15.0,22.0,58,0.00,,,0.00,0,Wunderground v.1.15,2013-02-21 02:01:00,
2013-02-20 20:06:00,20.2,9.2,30.17,East,89,13.0,22.0,62,0.00,,,0.00,0,Wunderground v.1.15,2013-02-21 02:06:00,
2013-02-20 20:11:00,20.0,10.1,30.17,SSE,151,12.0,17.0,65,0.00,,,0.00,0,Wunderground v.1.15,2013-02-21 02:11:00,
2013-02-20 20:16:00,20.0,10.5,30.17,ESE,102,11.0,17.0,66,0.00,,,0.00,0,Wunderground v.1.15,2013-02-21 02:16:00,
2013-02-20 20:21:00,20.1,10.9,30.17,East,98,15.0,16.0,67,0.00,,,0.00,0,Wunderground v.1.15,2013-02-21 02:21:00,
2013-02-20 20:26:00,20.1,11.2,30.17,ESE,104,11.0,17.0,68,0.00,,,0.00,0,Wunderground v.1.15,2013-02-21 02:26:00,
2013-02-20 20:31:00,20.1,11.6,30.17,East,94,11.0,16.0,69,0.00,,,0.00,0,Wunderground v.1.15,2013-02-21 02:31:00,
2013-02-20 20:36:00,19.9,12.0,30.17,ESE,103,13.0,18.0,71,0.00,,,0.00,0,Wunderground v.1.15,2013-02-21 02:36:00,
2013-02-20 20:41:00,19.6,12.3,30.17,ESE,121,8.0,14.0,73,0.00,,,0.00,0,Wunderground v.1.15,2013-02-21 02:41:00,
2013-02-20 20:46:00,19.5,12.9,30.17,East,84,19.0,19.0,75,0.00,,,0.00,0,Wunderground v.1.15,2013-02-21 02:46:00,
2013-02-20 20:51:00,19.2,13.2,30.17,East,86,14.0,16.0,77,0.00,,,0.00,0,Wunderground v.1.15,2013-02-21 02:51:00,
2013-02-20 20:56:00,19.0,13.8,30.18,SE,124,8.0,17.0,80,0.00,,,0.00,0,Wunderground v.1.15,2013-02-21 02:56:00,
2013-02-20 21:01:00,18.9,14.3,30.17,East,101,13.0,16.0,82,0.00,,,0.00,0,Wunderground v.1.15,2013-02-21 03:01:00,
2013-02-20 21:06:00,18.8,14.5,30.18,ESE,109,5.0,16.0,83,0.00,,,0.00,0,Wunderground v.1.15,2013-02-21 03:06:00,
2013-02-20 21:11:00,18.8,14.5,30.18,ESE,103,9.0,15.0,83,0.00,,,0.00,0,Wunderground v.1.15,2013-02-21 03:11:00,
2013-02-20 21:16:00,18.8,14.5,30.18,ESE,110,11.0,15.0,83,0.00,,,0.00,0,Wunderground v.1.15,2013-02-21 03:16:00,
2013-02-20 21:21:00,18.8,14.8,30.18,ESE,107,14.0,17.0,84,0.00,,,0.00,0,Wunderground v.1.15,2013-02-21 03:21:00,
2013-02-20 21:26:00,18.7,16.8,30.18,ESE,102,9.0,18.0,92,0.00,,,0.00,0,Wunderground v.1.15,2013-02-21 03:26:00,
2013-02-20 21:31:00,18.7,14.7,30.17,ESE,107,7.0,15.0,84,0.00,,,0.00,0,Wunderground v.1.15,2013-02-21 03:31:00,
2013-02-20 21:36:00,18.7,14.9,30.18,East,99,11.0,15.0,85,0.00,,,0.00,0,Wunderground v.1.15,2013-02-21 03:36:00,
2013-02-20 21:41:00,18.6,14.8,30.18,East,91,11.0,14.0,85,0.00,,,0.00,0,Wunderground v.1.15,2013-02-21 03:41:00,
2013-02-20 21:46:00,18.6,14.8,30.18,ESE,108,9.0,15.0,85,0.00,,,0.00,0,Wunderground v.1.15,2013-02-21 03:46:00,
2013-02-20 21:51:00,18.5,15.0,30.18,ESE,108,12.0,15.0,86,0.00,,,0.00,0,Wunderground v.1.15,2013-02-21 03:51:00,
2013-02-20 21:56:00,18.5,15.0,30.18,ESE,103,9.0,16.0,86,0.00,,,0.00,0,Wunderground v.1.15,2013-02-21 03:56:00,
2013-02-20 22:01:00,18.5,15.0,30.18,East,97,11.0,13.0,86,0.00,,,0.00,0,Wunderground v.1.15,2013-02-21 04:01:00,
2013-02-20 22:06:00,18.4,14.9,30.18,ESE,114,13.0,17.0,86,0.00,,,0.00,0,Wunderground v.1.15,2013-02-21 04:06:00,
2013-02-20 22:11:00,18.4,14.9,30.18,SE,129,12.0,14.0,86,0.00,,,0.00,0,Wunderground v.1.15,2013-02-21 04:11:00,
2013-02-20 22:16:00,18.4,14.9,30.18,East,98,22.0,23.0,86,0.00,,,0.00,0,Wunderground v.1.15,2013-02-21 04:16:00,
2013-02-20 22:21:00,18.3,14.8,30.18,ESE,111,9.0,14.0,86,0.00,,,0.00,0,Wunderground v.1.15,2013-02-21 04:21:00,
2013-02-20 22:27:00,18.2,14.7,30.18,East,99,14.0,18.0,86,0.00,,,0.00,0,Wunderground v.1.15,2013-02-21 04:27:00,
2013-02-20 22:32:00,18.2,15.0,30.18,East,98,13.0,19.0,87,0.00,,,0.00,0,Wunderground v.1.15,2013-02-21 04:32:00,
2013-02-20 22:37:00,18.2,15.0,30.19,SE,132,11.0,19.0,87,0.00,,,0.00,0,Wunderground v.1.15,2013-02-21 04:37:00,
2013-02-20 22:42:00,18.2,15.0,30.19,East,79,11.0,15.0,87,0.00,,,0.00,0,Wunderground v.1.15,2013-02-21 04:42:00,
2013-02-20 22:47:00,18.1,14.9,30.19,East,93,9.0,22.0,87,0.00,,,0.00,0,Wunderground v.1.15,2013-02-21 04:47:00,
2013-02-20 22:52:00,18.0,14.8,30.19,ESE,104,16.0,19.0,87,0.00,,,0.00,0,Wunderground v.1.15,2013-02-21 04:52:00,
2013-02-20 22:57:00,18.0,14.8,30.19,ESE,102,12.0,19.0,87,0.00,,,0.00,0,Wunderground v.1.15,2013-02-21 04:57:00,
2013-02-20 23:00:00,18.0,14.8,30.19,ESE,118,12.0,19.0,87,0.00,,,0.00,0,Wunderground v.1.15,2013-02-21 05:00:00,
2013-02-20 23:05:00,17.9,14.7,30.19,ESE,103,12.0,17.0,87,0.00,,,0.00,0,Wunderground v.1.15,2013-02-21 05:05:00,
2013-02-20 23:10:00,17.9,14.7,30.19,ESE,104,10.0,15.0,87,0.00,,,0.00,0,Wunderground v.1.15,2013-02-21 05:10:00,
2013-02-20 23:15:00,17.9,14.7,30.19,East,97,9.0,16.0,87,0.00,,,0.00,0,Wunderground v.1.15,2013-02-21 05:15:00,
2013-02-20 23:20:00,17.8,14.6,30.19,ESE,107,14.0,17.0,87,0.00,,,0.00,0,Wunderground v.1.15,2013-02-21 05:20:00,
2013-02-20 23:25:00,17.8,14.8,30.19,ESE,103,15.0,17.0,88,0.00,,,0.00,0,Wunderground v.1.15,2013-02-21 05:25:00,
2013-02-20 23:30:00,17.7,14.8,30.19,East,94,18.0,18.0,88,0.00,,,0.00,0,Wunderground v.1.15,2013-02-21 05:30:00,
2013-02-20 23:35:00,17.7,14.8,30.19,ESE,111,8.0,19.0,88,0.00,,,0.00,0,Wunderground v.1.15,2013-02-21 05:35:00,
2013-02-20 23:40:00,17.7,14.8,30.18,East,90,15.0,17.0,88,0.00,,,0.00,0,Wunderground v.1.15,2013-02-21 05:40:00,
2013-02-20 23:45:00,17.7,14.8,30.19,East,101,14.0,17.0,88,0.00,,,0.00,0,Wunderground v.1.15,2013-02-21 05:45:00,
2013-02-20 23:50:00,17.7,14.8,30.18,East,92,8.0,15.0,88,0.00,,,0.00,0,Wunderground v.1.15,2013-02-21 05:50:00,
2013-02-20 23:55:00,17.7,14.8,30.18,SE,146,9.0,16.0,88,0.00,,,0.00,0,Wunderground v.1.15,2013-02-21 05:55:00,